FW4584 Weather Reports


time (UTC)temp
C
wind
direction
speed
KPH
gust
KPH
rain 1hr
cm
rain 24hr
cm
rain mn
cm
humidity
%
barometer
mb
20260502193705 18 256 11.3 25.7 0.00 0.00 0.00 35 1012.2
20260502191006 18 250 6.4 19.3 0.00 0.00 0.00 38 1012.8
20260502190105 17 236 9.7 20.9 0.00 0.00 0.00 35 1013.0
20260502184305 17 237 9.7 25.7 0.00 0.00 0.00 36 1013.3
20260502183405 16 233 8.0 19.3 0.00 0.00 0.00 37 1013.6
20260502182505 16 242 6.4 19.3 0.00 0.00 0.00 37 1013.9
20260502181605 16 224 9.7 25.7 0.00 0.00 0.00 36 1014.0
20260502180705 16 228 8.0 22.5 0.00 0.00 0.00 38 1014.1
20260502170405 15 254 6.4 25.7 0.00 0.00 0.00 36 1015.3
20260502163705 14 259 6.4 20.9 0.00 0.00 0.00 36 1015.6
20260502162805 13 248 6.4 14.5 0.00 0.00 0.00 39 1015.8
20260502161905 13 225 9.7 19.3 0.00 0.00 0.00 38 1015.9
20260502161005 13 225 8.0 19.3 0.00 0.00 0.00 40 1016.1
20260502151605 12 253 6.4 16.1 0.00 0.00 0.00 44 1016.7
20260502150705 12 263 6.4 16.1 0.00 0.00 0.00 46 1016.8
20260502123404 5 274 1.6 8.0 0.00 0.00 0.00 70 1017.4
20260502122504 5 314 1.6 6.4 0.00 0.00 0.00 71 1017.4
20260502121604 5 336 1.6 6.4 0.00 0.00 0.00 72 1017.5
20260502120704 5 346 3.2 12.9 0.00 0.00 0.00 71 1017.5
20260502114904 4 282 3.2 11.3 0.00 0.00 0.00 72 1017.5
20260502114004 4 257 3.2 12.9 0.00 0.00 0.00 73 1017.5
20260502112204 4 253 1.6 8.0 0.00 0.00 0.00 73 1017.5
20260502111304 4 254 1.6 8.0 0.00 0.00 0.00 74 1017.3
20260502110404 4 262 1.6 8.0 0.00 0.00 0.00 73 1017.3
20260502105504 4 252 1.6 8.0 0.00 0.00 0.00 72 1017.4
20260502104604 4 253 3.2 11.3 0.00 0.00 0.00 72 1017.3
20260502103704 4 256 3.2 9.7 0.00 0.00 0.00 71 1017.3
20260502102804 4 259 3.2 11.3 0.00 0.00 0.00 71 1017.4
20260502101904 4 258 3.2 9.7 0.00 0.00 0.00 70 1017.4
20260502101004 4 252 1.6 9.7 0.00 0.00 0.00 71 1017.3
20260502100104 4 243 0.0 4.8 0.00 0.00 0.00 71 1017.3
20260502071003 6 246 0.0 6.4 0.00 0.00 0.00 60 1017.4
20260502065203 6 234 0.0 4.8 0.00 0.00 0.00 61 1017.6
20260502064303 6 241 0.0 1.6 0.00 0.00 0.00 61 1017.6
20260502063403 6 256 0.0 1.6 0.00 0.00 0.00 61 1017.7
20260502062503 6 256 0.0 4.8 0.00 0.00 0.00 60 1017.7
20260502061603 6 337 0.0 1.6 0.00 0.00 0.00 61 1017.6
20260502060703 6 238 0.0 4.8 0.00 0.00 0.00 61 1017.6
20260502055803 6 246 0.0 6.4 0.00 0.00 0.00 61 1017.6
20260502054903 6 238 0.0 4.8 0.00 0.00 0.00 59 1017.6
20260502054003 6 248 0.0 3.2 0.00 0.00 0.00 59 1017.7
20260502053103 6 265 0.0 3.2 0.00 0.00 0.00 59 1017.6
20260502051303 6 248 0.0 4.8 0.00 0.00 0.00 60 1017.7
20260502050403 6 261 0.0 4.8 0.00 0.00 0.00 63 1017.7
20260502045503 6 266 0.0 3.2 0.00 0.00 0.00 63 1017.6
20260502044603 6 0 0.0 0.0 0.00 0.00 0.00 63 1017.5
20260502043703 6 0 0.0 0.0 0.00 0.00 0.00 63 1017.6
20260502042803 6 0 0.0 0.0 0.00 0.00 0.00 62 1017.6
20260502041903 6 0 0.0 0.0 0.00 0.00 0.00 62 1017.6
20260502041003 6 0 0.0 0.0 0.00 0.00 0.00 63 1017.6
20260502035203 6 0 0.0 0.0 0.00 0.00 0.00 64 1017.6
20260502034303 6 0 0.0 0.0 0.00 0.00 0.00 65 1017.6
20260502032503 7 0 0.0 0.0 0.00 0.00 0.00 63 1017.6
20260502031603 7 0 0.0 0.0 0.00 0.00 0.00 63 1017.6
20260502030702 7 0 0.0 0.0 0.00 0.00 0.00 62 1017.6
20260502025803 7 0 0.0 0.0 0.00 0.00 0.00 60 1017.5
20260502024902 7 0 0.0 0.0 0.00 0.00 0.00 60 1017.6
20260502024003 8 0 0.0 0.0 0.00 0.00 0.00 58 1017.6
20260502023102 8 0 0.0 0.0 0.00 0.00 0.00 57 1017.6
20260502020402 9 0 0.0 0.0 0.00 0.00 0.00 50 1017.3
20260502015502 9 0 0.0 0.0 0.00 0.00 0.00 47 1017.2
20260502013702 10 356 0.0 3.2 0.00 0.00 0.00 45 1017.0
20260502011902 10 0 0.0 0.0 0.00 0.00 0.00 40 1016.9
20260502011002 11 308 0.0 1.6 0.00 0.00 0.00 37 1016.9
20260502005202 11 317 4.8 8.0 0.00 0.00 0.00 36 1017.0
20260502004302 11 321 6.4 9.7 0.00 0.00 0.00 36 1016.9
20260502003402 11 316 6.4 12.9 0.00 0.00 0.00 36 1016.9
20260502002502 11 312 9.7 16.1 0.00 0.00 0.00 35 1016.9
20260502001602 11 333 14.5 19.3 0.00 0.00 0.00 35 1016.9
20260501235802 11 315 6.4 14.5 0.00 0.00 0.00 34 1016.9
20260501234902 11 350 6.4 17.7 0.00 0.00 0.00 34 1017.0
20260501234002 11 336 9.7 19.3 0.00 0.00 0.00 34 1017.0
20260501233102 11 320 14.5 29.0 0.00 0.00 0.00 34 1017.0
20260501231302 11 326 17.7 27.4 0.00 0.00 0.00 34 1017.0
20260501230402 11 320 12.9 24.1 0.00 0.00 0.00 37 1017.0
20260501224602 11 344 17.7 25.7 0.00 0.00 0.00 37 1017.1
20260501223702 11 332 16.1 22.5 0.00 0.00 0.00 36 1017.1
20260501222802 11 321 14.5 25.7 0.00 0.00 0.00 36 1017.1
20260501221902 11 313 14.5 25.7 0.00 0.00 0.00 35 1017.1
20260501221002 11 319 17.7 27.4 0.00 0.00 0.00 35 1017.1
20260501214301 11 327 11.3 19.3 0.00 0.00 0.00 35 1017.1
20260501212501 11 312 16.1 32.2 0.00 0.00 0.00 36 1017.2
20260501211601 11 306 14.5 24.1 0.00 0.00 0.00 37 1017.2
20260501210701 11 325 12.9 24.1 0.00 0.00 0.00 36 1017.3
20260501205801 11 335 17.7 33.8 0.00 0.00 0.00 35 1017.4
20260501204901 11 312 9.7 22.5 0.00 0.00 0.00 36 1017.5
20260501203101 10 357 9.7 24.1 0.00 0.00 0.00 36 1017.5
20260501202201 10 2 17.7 32.2 0.00 0.00 0.00 38 1017.6
20260501201301 11 340 14.5 32.2 0.00 0.00 0.00 38 1017.6
20260501200401 10 337 17.7 25.7 0.00 0.00 0.00 39 1017.7
20260501195501 10 345 16.1 27.4 0.00 0.00 0.00 38 1017.6
20260501194601 10 352 16.1 24.1 0.00 0.00 0.00 39 1017.7